Tiempo cada hora Muruntov

Hoy, 28 Octubre, Miércoles

Tiempo Temperatura Precipitaciones Viento Presión Humedad
00:00 -1°C° 0 mm 3 mps 716 mmHg 50%
01:00 -1°C° 0 mm 3 mps 717 mmHg 50%
02:00 -2°C° 0 mm 3 mps 717 mmHg 52%
03:00 -2°C° 0 mm 3 mps 717 mmHg 53%
04:00 -4°C° 0 mm 3 mps 717 mmHg 56%
05:00 -4°C° 0 mm 3 mps 718 mmHg 55%
06:00 -2°C° 0 mm 3 mps 718 mmHg 55%
07:00 -2°C° 0 mm 3 mps 719 mmHg 55%
08:00 -1°C° 0 mm 3 mps 719 mmHg 49%
09:00 0°C° 0 mm 4 mps 720 mmHg 43%
10:00 +3°C° 0 mm 4 mps 721 mmHg 37%
11:00 +4°C° 0 mm 4 mps 721 mmHg 35%
12:00 +5°C° 0 mm 4 mps 721 mmHg 34%
13:00 +6°C° 0 mm 5 mps 721 mmHg 33%
14:00 +5°C° 0 mm 5 mps 721 mmHg 34%
15:00 +5°C° 0 mm 5 mps 722 mmHg 35%
16:00 +5°C° 0 mm 5 mps 722 mmHg 37%
17:00 +3°C° 0 mm 5 mps 722 mmHg 42%
18:00 +1°C° 0 mm 4 mps 722 mmHg 48%
19:00 0°C° 0 mm 4 mps 723 mmHg 53%
20:00 -1°C° 0 mm 4 mps 723 mmHg 56%
21:00 -1°C° 0 mm 4 mps 723 mmHg 59%
22:00 -2°C° 0 mm 4 mps 723 mmHg 62%
23:00 -2°C° 0 mm 4 mps 723 mmHg 65%

Mañana, 29 Octubre, Jueves

Tiempo Temperatura Precipitaciones Viento Presión Humedad
00:00 -3°C° 0 mm 4 mps 722 mmHg 67%
01:00 -3°C° 0 mm 4 mps 722 mmHg 69%
02:00 -4°C° 0 mm 4 mps 722 mmHg 72%
03:00 -4°C° 0 mm 4 mps 722 mmHg 74%
04:00 -4°C° 0 mm 4 mps 722 mmHg 77%
05:00 -4°C° 0 mm 4 mps 723 mmHg 76%
06:00 -4°C° 0 mm 4 mps 723 mmHg 75%
07:00 -5°C° 0 mm 5 mps 723 mmHg 74%
08:00 -2°C° 0 mm 5 mps 723 mmHg 64%
09:00 -1°C° 0 mm 6 mps 723 mmHg 54%
10:00 +2°C° 0 mm 6 mps 723 mmHg 44%
11:00 +4°C° 0 mm 6 mps 723 mmHg 39%
12:00 +5°C° 0 mm 7 mps 723 mmHg 35%
13:00 +8°C° 0 mm 7 mps 723 mmHg 31%
14:00 +8°C° 0 mm 7 mps 722 mmHg 32%
15:00 +6°C° 0 mm 7 mps 722 mmHg 33%
16:00 +6°C° 0 mm 7 mps 722 mmHg 33%
17:00 +5°C° 0 mm 7 mps 722 mmHg 37%
18:00 +4°C° 0 mm 7 mps 722 mmHg 41%
19:00 +3°C° 0 mm 7 mps 722 mmHg 45%
20:00 +2°C° 0 mm 6 mps 721 mmHg 45%
21:00 +2°C° 0 mm 6 mps 721 mmHg 46%
22:00 +1°C° 0 mm 6 mps 721 mmHg 47%
23:00 +1°C° 0 mm 6 mps 720 mmHg 48%

Pasado mañana, 30 Octubre, Viernes

Tiempo Temperatura Precipitaciones Viento Presión Humedad
00:00 0°C° 0 mm 5 mps 720 mmHg 49%
01:00 0°C° 0 mm 5 mps 719 mmHg 49%
02:00 0°C° 0 mm 5 mps 719 mmHg 51%
03:00 -1°C° 0 mm 5 mps 719 mmHg 53%
04:00 -1°C° 0 mm 5 mps 719 mmHg 54%
05:00 -1°C° 0 mm 5 mps 719 mmHg 53%
06:00 -1°C° 0 mm 5 mps 719 mmHg 53%
07:00 0°C° 0 mm 5 mps 719 mmHg 52%
08:00 +2°C° 0 mm 5 mps 719 mmHg 44%
09:00 +5°C° 0 mm 6 mps 719 mmHg 36%
10:00 +8°C° 0 mm 6 mps 719 mmHg 28%
11:00 +10°C° 0 mm 7 mps 719 mmHg 25%
12:00 +11°C° 0 mm 7 mps 718 mmHg 21%
13:00 +14°C° 0 mm 7 mps 718 mmHg 18%
14:00 +13°C° 0 mm 6 mps 718 mmHg 19%
15:00 +13°C° 0 mm 6 mps 717 mmHg 20%
16:00 +11°C° 0 mm 6 mps 717 mmHg 22%
17:00 +10°C° 0 mm 5 mps 717 mmHg 24%
18:00 +8°C° 0 mm 5 mps 717 mmHg 27%
19:00 +7°C° 0 mm 5 mps 717 mmHg 30%
20:00 +6°C° 0 mm 5 mps 717 mmHg 32%
21:00 +5°C° 0 mm 5 mps 716 mmHg 35%
22:00 +4°C° 0 mm 4 mps 716 mmHg 37%
23:00 +4°C° 0 mm 4 mps 716 mmHg 39%

31 Octubre, Sábado

Tiempo Temperatura Precipitaciones Viento Presión Humedad
00:00 +3°C° 0 mm 4 mps 716 mmHg 40%
01:00 +3°C° 0 mm 3 mps 715 mmHg 42%
02:00 +2°C° 0 mm 3 mps 715 mmHg 43%
03:00 +2°C° 0 mm 3 mps 715 mmHg 44%
04:00 +2°C° 0 mm 3 mps 715 mmHg 46%
05:00 +2°C° 0 mm 3 mps 715 mmHg 44%
06:00 +2°C° 0 mm 3 mps 715 mmHg 43%
07:00 +3°C° 0 mm 3 mps 716 mmHg 41%
08:00 +5°C° 0 mm 3 mps 716 mmHg 35%
09:00 +8°C° 0 mm 4 mps 716 mmHg 30%
10:00 +11°C° 0 mm 4 mps 716 mmHg 24%
11:00 +13°C° 0 mm 4 mps 716 mmHg 21%
12:00 +14°C° 0 mm 4 mps 716 mmHg 19%
13:00 +17°C° 0 mm 4 mps 716 mmHg 16%
14:00 +15°C° 0 mm 4 mps 716 mmHg 17%
15:00 +14°C° 0 mm 3 mps 716 mmHg 18%
16:00 +14°C° 0 mm 3 mps 715 mmHg 19%
17:00 +12°C° 0 mm 3 mps 715 mmHg 21%
18:00 +10°C° 0 mm 3 mps 715 mmHg 24%
19:00 +8°C° 0 mm 3 mps 715 mmHg 27%
20:00 +8°C° 0 mm 3 mps 715 mmHg 30%
21:00 +7°C° 0 mm 3 mps 715 mmHg 33%
22:00 +7°C° 0 mm 2 mps 715 mmHg 36%
23:00 +6°C° 0 mm 2 mps 714 mmHg 37%

1 Noviembre, Domingo

Tiempo Temperatura Precipitaciones Viento Presión Humedad
00:00 +6°C° 0 mm 2 mps 714 mmHg 38%
01:00 +6°C° 0 mm 2 mps 714 mmHg 39%
02:00 +5°C° 0 mm 2 mps 714 mmHg 40%
03:00 +5°C° 0 mm 2 mps 714 mmHg 41%
04:00 +4°C° 0 mm 2 mps 714 mmHg 42%
05:00 +5°C° 0 mm 2 mps 714 mmHg 39%
06:00 +5°C° 0 mm 2 mps 715 mmHg 36%
07:00 +6°C° 0 mm 2 mps 715 mmHg 33%
08:00 +9°C° 0 mm 2 mps 715 mmHg 28%
09:00 +12°C° 0 mm 2 mps 716 mmHg 23%
10:00 +14°C° 0 mm 3 mps 716 mmHg 18%
11:00 +16°C° 0 mm 2 mps 716 mmHg 16%
12:00 +17°C° 0 mm 2 mps 716 mmHg 15%
13:00 +19°C° 0 mm 2 mps 716 mmHg 13%
14:00 +18°C° 0 mm 2 mps 716 mmHg 14%
15:00 +17°C° 0 mm 2 mps 715 mmHg 15%
16:00 +15°C° 0 mm 2 mps 715 mmHg 17%
17:00 +14°C° 0 mm 2 mps 715 mmHg 19%
18:00 +12°C° 0 mm 2 mps 715 mmHg 22%
19:00 +10°C° 0 mm 2 mps 715 mmHg 25%
20:00 +9°C° 0 mm 2 mps 715 mmHg 26%
21:00 +9°C° 0 mm 2 mps 715 mmHg 27%
22:00 +8°C° 0 mm 2 mps 715 mmHg 27%
23:00 +8°C° 0 mm 2 mps 714 mmHg 30%

2 Noviembre, Lunes

Tiempo Temperatura Precipitaciones Viento Presión Humedad
00:00 +7°C° 0 mm 2 mps 714 mmHg 33%
01:00 +6°C° 0 mm 2 mps 714 mmHg 36%
02:00 +6°C° 0 mm 2 mps 714 mmHg 38%
03:00 +5°C° 0 mm 2 mps 714 mmHg 40%
04:00 +5°C° 0 mm 2 mps 714 mmHg 42%
05:00 +5°C° 0 mm 2 mps 715 mmHg 38%
06:00 +6°C° 0 mm 2 mps 715 mmHg 33%
07:00 +6°C° 0 mm 2 mps 715 mmHg 29%
08:00 +9°C° 0 mm 2 mps 716 mmHg 25%
09:00 +13°C° 0 mm 2 mps 716 mmHg 20%
10:00 +16°C° 0 mm 2 mps 717 mmHg 16%
11:00 +17°C° 0 mm 2 mps 717 mmHg 14%
12:00 +18°C° 0 mm 2 mps 717 mmHg 13%
13:00 +19°C° 0 mm 2 mps 717 mmHg 12%
14:00 +18°C° 0 mm 2 mps 717 mmHg 13%
15:00 +17°C° 0 mm 2 mps 717 mmHg 14%
16:00 +16°C° 0 mm 2 mps 717 mmHg 15%
17:00 +14°C° 0 mm 2 mps 717 mmHg 22%
18:00 +12°C° 0 mm 2 mps 717 mmHg 29%
19:00 +9°C° 0 mm 2 mps 717 mmHg 36%
20:00 +8°C° 0 mm 2 mps 717 mmHg 37%
21:00 +8°C° 0 mm 2 mps 717 mmHg 37%
22:00 +7°C° 0 mm 2 mps 717 mmHg 38%
23:00 +8°C° 0 mm 1 mps 716 mmHg 39%
Mostrar más

Necesitamos Su Consentimiento

Meteoprog y nuestros Proveedores de Servicios pueden almacenar y acceder a sus datos personales como cookies, identificadores de dispositivo u otras tecnologías similares de su dispositivo y procesar dichos datos para personalizar contenido y anuncios, además de ofrecer funciones de redes sociales y analizar el tráfico.

  • Almacenar y/o acceder a información en su dispositivo

    Se puede almacenar o acceder a cookies, identificadores de dispositivo u otra información de su dispositivo para los fines anteriormente indicados.

  • Anuncios y contenido personalizados, medición de anuncios y contenido, percepciones del público, y desarrollo de productos

    Los anuncios y el contenido pueden personalizarse en base a su perfil. Se pueden añadir más datos para personalizar mejor los anuncios y contenidos. Se puede medir el rendimiento de los anuncios y contenidos. Se puede obtener la percepción sobre el público que ha visto los anuncios y contenidos. Dichos datos pueden usarse para desarrollar o mejorar la experiencia del usuario, sistemas y software.

Al hacer clic en ‘Estoy De Acuerdo’ usted permitirá el uso de las cookies, identificadores de dispositivo, balizas web u otras tecnologías similares indicadas. Su configuración puede cambiarse desde el navegador de su dispositivo.

Para ciertos fines, los intereses legítimos pueden ser considerados por encima del consentimiento. Puede leer más sobre ello en nuestra Política de Privacidad y Cookies.